Vorticity
4 4 3 3 4 1 5 4 4 4 4 4 5 5 5 5 5 5 4 4 4 5 5 3 7 5 4 4 4 3 3 3 3 3 3 3 2 3 3 4 5 7 11
5 5 4 3 3 2 4 4 4 5 5 5 5 4 4 4 5 5 6 6 7 9 10 11 11 11 10 9 8 7 6 5 4 4 4 4 4 4 3 2 3 5 6
5 3 3 2 2 2 5 5 6 5 5 5 4 4 4 4 6 7 8 9 9 8 6 5 4 4 5 6 6 6 7 6 6 6 6 7 5 4 4 4 4 3 3
6 3 3 3 4 4 5 6 5 4 5 4 4 4 5 6 8 8 8 6 5 5 4 4 4 3 4 4 3 3 4 4 4 4 5 5 6 5 4 4 5 4 5
9 4 3 4 6 7 6 5 4 5 4 4 4 5 7 8 7 7 5 5 4 4 4 3 3 3 3 3 4 4 4 4 4 4 3 4 4 5 5 6 5 4 4
10 7 4 7 8 4 4 4 5 4 4 4 5 6 7 7 7 5 5 4 4 3 3 3 3 3 3 4 4 5 6 6 6 5 4 4 4 4 5 5 6 5 5
10 8 9 7 2 4 4 4 4 5 4 5 5 6 7 7 6 5 4 4 4 3 3 4 4 4 5 5 5 5 6 6 6 7 6 6 6 6 6 7 8 7 7
9 7 8 6 4 3 4 4 5 4 4 5 5 6 6 6 6 5 5 4 4 4 4 5 5 5 5 5 6 6 6 8 8 8 8 9 9 10 5 5 4 5 6
8 7 6 4 3 3 4 4 5 5 4 5 5 6 6 6 6 5 5 5 5 5 5 5 5 6 8 9 9 9 9 9 8 8 8 7 7 7 9 1 16 14 6
5 7 5 4 3 3 4 4 5 4 4 4 6 7 7 6 6 6 6 6 5 5 5 7 9 10 10 9 8 7 7 7 8 8 8 8 8 7 7 14 -3 4 -3
3 6 6 4 4 3 4 4 5 4 4 4 6 6 6 7 6 6 6 5 4 5 7 8 8 8 8 8 8 9 9 10 10 10 10 9 7 7 6 6 5 9 3
3 5 5 5 4 4 4 4 5 4 4 4 5 6 7 7 7 6 5 4 6 6 8 9 8 7 7 9 9 6 7 9 11 13 14 14 13 10 7 6 4 4 6
4 5 4 5 4 4 4 5 4 3 3 4 4 6 7 7 6 5 5 7 6 8 8 7 8 9 10 6 5 10 13 15 6 8 12 15 17 17 18 16 13 10 7
3 4 4 5 4 3 4 5 4 4 4 5 4 6 7 7 5 5 6 6 9 9 8 10 11 8 5 3 7 9 11 5 7 9 10 9 9 10 10 11 13 15 16
3 4 4 4 4 4 4 4 5 4 4 4 3 6 7 6 5 6 5 7 10 9 8 3 3 5 6 6 8 9 11 7 5 6 7 7 7 6 8 9 9 9 9
3 3 5 4 4 4 5 5 5 4 4 4 4 6 8 6 6 6 6 8 9 7 5 5 7 6 8 8 9 10 10 10 7 6 6 7 6 6 7 7 8 9 9
4 7 5 3 4 4 4 4 4 3 4 4 4 6 8 7 7 6 7 7 6 6 6 7 7 8 8 8 8 8 9 10 11 10 7 6 7 6 5 5 5 6 6
4 8 4 3 4 4 4 4 5 4 5 4 4 6 7 7 7 6 7 6 6 6 6 7 7 8 8 10 10 10 9 10 9 10 11 10 11 10 9 10 9 7 6
8 4 3 3 4 4 4 4 5 5 5 4 4 6 8 8 7 7 6 6 7 7 7 8 9 8 8 9 9 9 10 10 10 11 11 10 8 8 10 9 9 10 10
8 3 3 3 4 4 4 4 4 5 5 4 4 6 9 8 7 6 6 6 7 7 7 7 7 8 9 8 8 8 8 7 7 9 8 9 8 8 8 9 9 9 9
3 3 3 3 5 4 4 4 4 4 5 3 4 7 9 8 7 6 6 6 5 5 5 6 6 7 8 8 8 8 6 6 7 5 8 8 8 7 7 8 6 7 7
5 5 5 6 6 4 4 4 4 4 5 4 5 8 8 7 6 5 5 4 4 5 6 6 6 8 7 7 7 6 7 7 6 6 6 7 8 7 6 6 6 6 6
6 7 8 7 5 4 4 4 4 5 5 4 5 8 7 7 5 5 5 5 5 6 6 6 7 7 7 8 8 7 8 7 6 7 8 6 7 8 7 7 6 7 7
9 8 8 6 4 3 3 4 3 6 4 4 7 9 8 8 5 5 5 5 5 6 7 7 7 7 8 8 9 8 8 7 7 7 7 7 7 6 7 8 8 8 8
10 9 6 4 4 4 5 5 4 7 3 5 8 8 8 6 5 4 5 6 7 7 8 8 8 9 9 9 8 6 6 6 6 6 6 7 8 9 9 8 7 7 7
6 6 5 4 4 5 4 4 6 5 4 10 8 8 8 6 5 5 5 5 6 7 8 9 10 10 9 8 7 7 6 6 6 7 8 8 8 8 9 8 8 8 8
Height
3179 3181 3183 3184 3186 3187 3187 3187 3187 3186 3186 3185 3184 3184 3183 3182 3181 3180 3178 3177 3176 3175 3174 3174 3172 3171 3170 3169 3169 3168 3167 3166 3165 3164 3164 3163 3161 3160 3160 3159 3158 3157 3156
3178 3181 3182 3184 3186 3187 3187 3187 3187 3186 3186 3185 3184 3183 3182 3181 3180 3180 3178 3177 3176 3175 3174 3173 3172 3171 3170 3169 3168 3167 3167 3166 3164 3163 3162 3162 3161 3160 3159 3158 3157 3156 3155
3177 3179 3182 3184 3185 3186 3187 3187 3187 3187 3186 3185 3184 3183 3182 3181 3180 3179 3178 3177 3176 3175 3174 3173 3172 3171 3170 3169 3168 3167 3166 3164 3163 3162 3161 3160 3159 3159 3158 3157 3156 3155 3154
3176 3178 3181 3183 3185 3186 3186 3187 3187 3186 3186 3185 3184 3183 3182 3180 3179 3178 3177 3176 3176 3175 3174 3173 3172 3171 3170 3168 3167 3166 3164 3163 3162 3161 3159 3159 3158 3157 3156 3156 3155 3154 3153
3176 3178 3180 3182 3183 3185 3186 3186 3186 3186 3185 3184 3184 3183 3181 3180 3178 3177 3177 3176 3175 3174 3173 3172 3171 3170 3169 3168 3166 3165 3163 3162 3161 3159 3158 3157 3156 3155 3153 3152 3152 3151 3151
3176 3178 3179 3181 3182 3184 3185 3185 3185 3185 3185 3184 3183 3182 3181 3179 3178 3177 3176 3175 3174 3173 3172 3171 3170 3168 3167 3166 3164 3162 3160 3159 3158 3156 3154 3153 3152 3151 3151 3150 3149 3148 3148
3176 3178 3179 3180 3181 3183 3184 3185 3185 3185 3184 3183 3182 3181 3180 3179 3178 3176 3175 3174 3173 3172 3171 3170 3168 3167 3165 3163 3161 3159 3157 3156 3155 3153 3151 3149 3149 3149 3148 3147 3146 3147 3146
3175 3177 3180 3181 3181 3182 3184 3185 3185 3185 3184 3183 3182 3181 3179 3178 3177 3176 3175 3174 3172 3171 3169 3168 3166 3164 3162 3160 3158 3156 3154 3154 3152 3150 3148 3147 3146 3146 3145 3145 3145 3144 3143
3174 3176 3178 3180 3181 3182 3183 3184 3184 3184 3184 3183 3182 3180 3179 3177 3176 3175 3174 3173 3171 3170 3168 3166 3163 3161 3159 3157 3154 3152 3151 3150 3148 3146 3145 3144 3143 3142 3142 3141 3141 3140 3140
3174 3175 3177 3179 3180 3181 3182 3183 3183 3184 3183 3182 3181 3180 3178 3176 3175 3174 3173 3171 3169 3167 3165 3163 3161 3158 3157 3154 3152 3149 3147 3146 3144 3143 3142 3141 3139 3138 3137 3137 3137 3136 3136
3172 3174 3176 3178 3179 3180 3182 3182 3182 3182 3182 3181 3180 3178 3176 3176 3174 3173 3171 3169 3167 3165 3162 3160 3157 3156 3153 3151 3149 3146 3143 3142 3141 3139 3137 3136 3135 3134 3134 3133 3132 3132 3132
3171 3173 3175 3177 3178 3179 3181 3181 3181 3181 3181 3180 3178 3177 3175 3175 3173 3171 3170 3167 3165 3162 3159 3157 3155 3153 3150 3148 3145 3143 3140 3139 3138 3136 3133 3131 3130 3129 3128 3127 3127 3126 3126
3169 3171 3174 3176 3178 3178 3179 3181 3180 3180 3179 3179 3177 3176 3174 3173 3170 3169 3167 3165 3162 3159 3156 3154 3152 3150 3147 3144 3142 3140 3137 3136 3135 3132 3131 3128 3126 3124 3123 3122 3122 3121 3121
3168 3170 3172 3174 3176 3177 3178 3179 3179 3178 3178 3178 3175 3173 3172 3170 3168 3167 3165 3162 3160 3156 3154 3152 3149 3147 3145 3142 3140 3137 3135 3134 3132 3130 3128 3125 3123 3121 3120 3118 3117 3116 3115
3165 3168 3171 3173 3174 3175 3176 3177 3177 3176 3176 3174 3174 3171 3170 3167 3166 3164 3162 3159 3157 3154 3152 3149 3148 3145 3142 3140 3137 3135 3133 3130 3128 3128 3125 3122 3120 3118 3117 3116 3114 3113 3111
3163 3166 3169 3171 3172 3173 3174 3175 3175 3174 3173 3172 3172 3169 3168 3165 3163 3161 3159 3156 3154 3152 3149 3147 3145 3143 3140 3137 3135 3132 3130 3127 3125 3124 3123 3120 3117 3116 3114 3112 3111 3109 3108
3161 3164 3167 3168 3169 3171 3172 3172 3172 3170 3170 3170 3168 3167 3165 3162 3160 3159 3156 3154 3152 3150 3146 3145 3142 3139 3136 3134 3132 3129 3126 3124 3122 3120 3119 3117 3115 3111 3109 3108 3107 3105 3104
3159 3162 3164 3166 3167 3168 3169 3169 3170 3168 3169 3167 3165 3164 3161 3159 3158 3156 3153 3152 3150 3147 3144 3142 3139 3136 3134 3132 3129 3126 3123 3121 3119 3117 3116 3114 3111 3108 3105 3104 3102 3101 3099
3157 3160 3162 3164 3165 3166 3167 3166 3167 3166 3166 3164 3162 3160 3158 3157 3155 3153 3150 3149 3147 3144 3141 3139 3137 3134 3131 3128 3125 3123 3120 3118 3115 3114 3113 3111 3107 3105 3103 3101 3099 3096 3094
3155 3157 3159 3161 3162 3163 3164 3163 3164 3163 3162 3161 3159 3157 3155 3154 3152 3150 3147 3145 3143 3140 3138 3136 3133 3131 3128 3125 3122 3119 3117 3115 3112 3110 3109 3107 3105 3102 3100 3098 3096 3094 3091
3151 3154 3156 3158 3159 3159 3160 3159 3159 3160 3159 3156 3155 3154 3152 3150 3148 3146 3144 3142 3139 3136 3134 3131 3129 3127 3124 3121 3119 3117 3114 3112 3110 3108 3106 3104 3102 3099 3096 3094 3092 3090 3088
3149 3150 3152 3154 3155 3155 3156 3156 3156 3155 3154 3153 3152 3150 3148 3146 3144 3142 3140 3138 3135 3133 3130 3127 3125 3123 3121 3118 3115 3112 3110 3109 3107 3104 3101 3100 3098 3096 3093 3090 3087 3085 3083
3144 3146 3148 3150 3151 3152 3152 3152 3152 3151 3150 3149 3147 3145 3143 3142 3140 3138 3136 3134 3132 3129 3126 3123 3121 3119 3116 3114 3112 3109 3106 3104 3102 3099 3096 3094 3092 3091 3088 3085 3082 3080 3077
3140 3142 3144 3146 3147 3147 3147 3147 3147 3147 3145 3144 3142 3140 3138 3137 3135 3133 3132 3130 3128 3124 3122 3119 3116 3114 3112 3109 3107 3105 3102 3100 3097 3095 3092 3088 3087 3085 3083 3081 3077 3075 3072
3136 3138 3140 3141 3142 3142 3142 3142 3141 3141 3140 3139 3137 3135 3134 3132 3130 3128 3127 3125 3122 3119 3116 3114 3111 3109 3106 3104 3102 3099 3097 3094 3091 3088 3086 3082 3079 3078 3077 3075 3072 3069 3066
3132 3134 3135 3137 3137 3137 3137 3136 3136 3136 3135 3133 3132 3130 3128 3126 3125 3124 3122 3120 3117 3114 3110 3108 3106 3103 3101 3099 3096 3094 3091 3088 3085 3081 3079 3077 3075 3072 3070 3069 3066 3063 3060